Main page
METAR-TAF:

METAR-TAF

Airports :

Ottawa Municipal Airport

Ottawa, Kansas, United States

latitude: 38-32-20N, longitude: 095-15-10W, elevation: 968 ft

Current weather observation

The report was made 10 hours and 53 minutes ago, at 20:55 UTC
Wind 17 mph from the South with gusts up to 23 mph
Temperature 90°F
Humidity 43%
Pressure 29.89 in. Hg
Visibility: 10 miles
Clear sky

METAR: KOWI 122055Z AUTO 18015G20KT 10SM CLR 32/18 A2989 RMK AO2 PWINO

Time: 02:48 (07:48 UTC)


TAF: missing

Weather observations and forecasts of more than 4000 airports (METAR and TAF reports).

The available stations are represented by yellow and red dots on the map.

Hover mouse over dot to see the name of the station.

Then click to see weather observations and forecasts.

To change the map : click on the green buttons with a black cross to zoom in, on the green button with a dash to zoom out, or on the green arrows for adjacent maps.


METAR-TAF: